Plattsburgh, NY

8:21 AM EDT on August 30, 2016 (GMT -0400)
Plattsburgh International

Weather History for KPBG - October, 2011

Change the Weather History Date:

Saturday, October 1, 2011

  Actual Average Record
Temperature  
Mean Temperature 50 °F 53 °F  
Max Temperature 57 °F 63 °F 83 °F (1968)
Min Temperature 43 °F 43 °F 27 °F (1993)
Degree Days  
Heating Degree Days 15 12  
Month to date heating degree days 15 12  
Since 1 July heating degree days 153 247  
Cooling Degree Days 0 0  
Month to date cooling degree days 0 0  
Year to date cooling degree days 444 345  
Moisture  
Dew Point 42 °F    
Average Humidity 84    
Maximum Humidity 96    
Minimum Humidity 71    
Precipitation  
Precipitation 0.85 in - 1.29 in (1977)
Month to date precipitation 0.85  
Year to date precipitation 33.67  
Sea Level Pressure  
Sea Level Pressure 29.89 in    
Wind  
Wind Speed 16 mph (NNW)    
Max Wind Speed 25 mph    
Max Gust Speed 33 mph    
Visibility 7 miles    
Events Rain    
T = Trace of Precipitation, MM = Missing Value Source: NWS Daily Summary

Daily Weather History Graph

Daily Weather History Graph

Search for Another Location

Airport or City:

Trip Planner

Search our weather history database for the weather conditions in past years. The results will help you decide how hot, cold, wet, or windy it might be!

Date:

Astronomy

Oct. 01, 2011 Rise Set
Actual Time 6:51 AM EDT 6:35 PM EDT
Civil Twilight 6:22 AM EDT 7:04 PM EDT
Nautical Twilight 5:48 AM EDT 7:37 PM EDT
Astronomical Twilight 5:14 AM EDT 8:12 PM EDT
Moon 12:08 PM EDT (10/1) 9:15 PM EDT (10/1)
Length of Visible Light 12h 41m
Length of Day
11h 43m
Waxing Crescent, 24% of the Moon is Illuminated
Oct 1
Waxing Crescent
Oct 3
First Quarter
Oct 11
Full
Oct 19
Last Quarter
Oct 26
New

Hourly Weather History & Observations

Time (EDT) Temp. Windchill Dew Point Humidity Pressure Visibility Wind Dir Wind Speed Gust Speed Precip Events Conditions
12:53 AM 55.0 °F - 52.0 °F 89% 29.72 in 10.0 mi Calm Calm - N/A   Clear
1:53 AM 57.0 °F - 53.1 °F 87% 29.75 in 10.0 mi North 12.7 mph - N/A   Mostly Cloudy
2:01 AM 57.2 °F - 53.6 °F 88% 29.75 in 10.0 mi North 15.0 mph - N/A   Mostly Cloudy
2:21 AM 55.4 °F - 51.8 °F 88% 29.75 in 10.0 mi North 16.1 mph - N/A   Overcast
2:53 AM 54.0 °F - 50.0 °F 86% 29.76 in 10.0 mi North 17.3 mph - N/A   Overcast
3:38 AM 53.6 °F - 46.4 °F 77% 29.77 in 10.0 mi North 13.8 mph - N/A   Overcast
3:53 AM 53.1 °F - 48.0 °F 83% 29.78 in 10.0 mi North 16.1 mph - N/A   Overcast
5:53 AM 48.9 °F - 42.1 °F 77% 29.78 in 10.0 mi North 18.4 mph 24.2 mph N/A   Overcast
6:53 AM 48.0 °F - 39.9 °F 74% 29.82 in 10.0 mi North 17.3 mph 28.8 mph N/A   Overcast
8:53 AM 46.0 °F 39.0 °F 39.9 °F 79% 29.86 in 7.0 mi NNW 17.3 mph - 0.01 in Rain Rain
9:53 AM 43.0 °F 35.1 °F 39.0 °F 86% 29.91 in 5.0 mi NNW 17.3 mph 23.0 mph 0.10 in Rain Rain
10:46 AM 42.8 °F 35.4 °F 39.2 °F 87% 29.91 in 8.0 mi North 15.0 mph - 0.08 in Rain Rain
10:53 AM 43.0 °F 35.4 °F 39.9 °F 89% 29.91 in 9.0 mi North 16.1 mph - 0.08 in Rain Light Rain
11:45 AM 42.8 °F 35.1 °F 39.2 °F 87% 29.91 in 10.0 mi North 16.1 mph 25.3 mph 0.02 in Rain Light Rain
11:53 AM 43.0 °F 35.1 °F 39.9 °F 89% 29.91 in 10.0 mi North 17.3 mph 23.0 mph 0.02 in   Overcast
12:53 PM 43.0 °F 36.8 °F 39.9 °F 89% 29.91 in 5.0 mi NNW 11.5 mph - 0.00 in Rain Light Rain
1:36 PM 42.8 °F 36.6 °F 39.2 °F 87% 29.90 in 2.5 mi NNW 11.5 mph - 0.02 in Rain Light Rain
1:53 PM 43.0 °F 35.7 °F 39.9 °F 89% 29.91 in 3.0 mi NNW 15.0 mph - 0.02 in Rain Light Rain
2:05 PM 42.8 °F 35.4 °F 39.2 °F 87% 29.90 in 3.0 mi NNW 15.0 mph - 0.00 in Rain Light Rain
2:21 PM 42.8 °F 35.4 °F 39.2 °F 87% 29.90 in 4.0 mi NNW 15.0 mph - 0.00 in Rain Light Rain
2:36 PM 42.8 °F 35.1 °F 39.2 °F 87% 29.90 in 4.0 mi NNW 16.1 mph - 0.01 in Rain Light Rain
2:53 PM 43.0 °F 36.0 °F 39.9 °F 89% 29.91 in 4.0 mi NNW 13.8 mph 23.0 mph 0.01 in Rain Light Rain
3:28 PM 42.8 °F 34.5 °F 39.2 °F 87% 29.91 in 10.0 mi NNW 18.4 mph 26.5 mph 0.01 in Rain Light Rain
4:11 PM 42.8 °F 35.1 °F 39.2 °F 87% 29.92 in 2.5 mi NNW 16.1 mph - 0.07 in Rain Rain
4:19 PM 42.8 °F 35.4 °F 39.2 °F 87% 29.93 in 4.0 mi NNW 15.0 mph 24.2 mph 0.09 in Rain Rain
4:53 PM 43.0 °F 35.4 °F 39.9 °F 89% 29.93 in 3.0 mi NNW 16.1 mph 24.2 mph 0.16 in Rain Rain
5:02 PM 42.8 °F 34.8 °F 39.2 °F 87% 29.93 in 2.5 mi NNW 17.3 mph - 0.03 in Rain Rain
5:10 PM 42.8 °F 34.5 °F 39.2 °F 87% 29.94 in 5.0 mi NNW 18.4 mph 23.0 mph 0.03 in Rain Light Rain
5:53 PM 43.0 °F 35.1 °F 39.9 °F 89% 29.94 in 4.0 mi North 17.3 mph - 0.11 in Rain Rain
6:53 PM 43.0 °F 35.1 °F 39.9 °F 89% 29.96 in 5.0 mi NNW 17.3 mph - 0.08 in Rain Rain
7:53 PM 43.0 °F 34.8 °F 41.0 °F 93% 29.97 in 4.0 mi NNW 18.4 mph 24.2 mph 0.11 in Rain Heavy Rain
8:06 PM 42.8 °F 34.3 °F 41.0 °F 93% 29.95 in 5.0 mi NNW 19.6 mph 25.3 mph 0.02 in Rain Rain
8:21 PM 42.8 °F 35.1 °F 41.0 °F 93% 29.96 in 6.0 mi NNW 16.1 mph - 0.03 in Rain Light Rain
9:14 PM 42.8 °F 35.1 °F 41.0 °F 93% 29.96 in 4.0 mi North 16.1 mph 24.2 mph 0.03 in Rain Rain
9:43 PM 44.6 °F 38.1 °F 41.0 °F 87% 29.97 in 9.0 mi NNW 13.8 mph 23.0 mph 0.04 in Rain Light Rain
9:53 PM 44.1 °F 36.2 °F 41.0 °F 89% 29.97 in 6.0 mi North 18.4 mph 24.2 mph 0.04 in Rain Light Rain
11:48 PM 44.6 °F 38.4 °F 42.8 °F 93% 29.94 in 10.0 mi North 12.7 mph - 0.01 in   Overcast
11:53 PM 44.1 °F 37.1 °F 42.1 °F 93% 29.95 in 10.0 mi North 15.0 mph - 0.01 in   Overcast